Vorticity
4 3 5 4 3 3 2 2 3 4 4 4 4 4 3 2 4 3 3 3 3 3 4 6 4 3 7 5 4 6 3 3 6 7 7 5 4 5 6 6 5 4 4 4 6 6 6 7 7 8 9 10 10 9 8 7 6 6 5 5 5 6 7 8 10 10 9 9 9 9 10 11 11 10 10 9 9 9 8 8 7 9 11 12 13 13
3 4 5 4 4 3 3 3 2 3 3 4 4 3 4 3 3 3 3 3 3 4 3 6 6 4 6 5 4 6 3 3 7 7 6 5 4 6 6 7 6 4 4 4 6 7 7 7 7 8 9 10 10 9 8 7 6 5 4 4 4 6 7 8 9 10 9 9 9 9 8 9 8 7 7 7 9 9 9 8 7 7 8 10 12 13
3 4 4 4 4 3 3 3 2 3 3 3 4 3 3 3 3 3 3 3 3 3 3 4 8 7 4 4 5 4 2 3 7 6 6 6 5 5 5 6 6 5 6 5 5 7 8 8 8 8 9 9 9 9 8 7 6 5 4 3 3 5 7 8 9 9 9 8 7 6 4 3 4 5 5 6 8 10 10 9 7 6 6 8 11 13
6 4 5 5 4 3 4 3 3 3 3 3 3 3 3 2 3 3 2 3 2 3 4 2 8 11 3 3 7 6 4 4 7 6 6 6 6 5 5 5 6 7 7 5 5 7 8 8 8 9 8 8 8 8 8 8 6 5 4 3 3 5 7 8 8 7 6 6 4 3 2 1 3 5 5 5 7 9 11 10 9 8 8 8 11 14
8 5 6 6 3 4 4 4 4 4 4 4 3 3 2 2 3 2 3 4 3 5 6 1 5 8 1 1 6 4 2 3 5 6 5 5 5 5 6 6 6 7 8 6 5 7 8 8 8 8 8 8 8 8 8 8 6 5 3 3 3 4 7 7 7 6 4 4 3 2 2 2 2 4 6 5 6 9 11 12 11 10 9 10 12 14
7 6 7 7 4 4 3 3 4 3 3 3 3 3 2 3 3 2 4 4 4 6 6 5 5 4 3 3 5 5 2 2 6 7 5 4 5 7 8 6 6 7 7 7 6 6 8 8 8 8 8 9 8 7 8 8 6 4 3 3 3 4 6 7 7 6 4 5 5 4 3 2 1 4 6 5 7 11 12 12 12 10 10 11 12 13
5 6 8 7 6 5 4 4 3 2 3 3 3 3 2 3 3 3 5 3 5 7 6 8 5 5 8 3 2 7 4 4 7 7 4 4 5 6 8 8 7 6 6 7 7 6 8 8 7 8 9 9 9 8 8 8 6 4 3 3 3 3 4 6 6 5 5 5 6 5 4 3 2 3 6 5 8 11 12 11 11 10 10 11 11 11
5 6 6 6 6 7 6 5 4 3 4 4 4 4 3 4 4 4 5 3 5 7 7 8 4 6 10 2 -0 5 2 3 7 5 4 4 4 6 8 9 7 5 6 7 7 6 7 8 7 9 10 10 9 8 8 8 6 5 4 3 2 3 3 4 5 4 4 5 4 3 3 4 3 3 5 6 8 10 11 11 10 10 9 9 10 10
4 5 5 6 7 7 7 6 6 5 5 5 4 4 4 5 4 3 5 4 5 7 7 6 4 5 8 4 2 4 2 4 6 5 5 4 5 5 6 8 7 7 7 7 7 6 5 7 8 9 9 10 10 8 8 7 6 5 4 4 3 3 3 3 3 3 3 3 2 3 4 5 4 3 5 7 8 9 11 11 9 9 9 8 9 9
4 5 5 6 6 6 7 7 7 5 5 6 4 4 4 4 3 3 6 5 5 7 4 4 6 4 8 6 1 4 6 5 7 9 6 4 6 6 5 7 8 9 8 7 8 7 5 7 8 9 9 10 10 8 8 7 6 5 4 4 4 3 2 2 2 2 2 2 2 3 5 5 5 4 6 7 8 11 13 11 8 8 8 8 9 10
4 6 5 6 6 7 8 7 7 6 7 7 6 5 4 3 4 4 5 5 5 5 2 3 4 4 11 9 0 5 8 5 10 10 5 4 7 9 8 7 7 9 8 7 9 8 5 5 8 9 9 10 10 9 9 7 6 6 5 5 4 3 3 2 3 2 2 3 3 4 4 5 6 6 6 7 9 15 17 11 7 7 7 8 10 11
5 6 5 5 7 7 8 7 7 8 8 8 8 7 5 4 4 3 4 3 3 2 1 3 3 6 13 7 1 6 5 7 12 8 1 2 6 10 9 5 4 7 7 7 8 9 6 5 7 9 9 10 10 9 8 7 7 6 5 5 4 4 3 2 3 3 3 4 4 4 5 6 7 6 7 9 12 17 18 10 6 6 6 8 11 11
5 6 6 7 8 8 8 8 9 9 8 7 6 6 7 7 6 4 3 1 1 1 1 3 2 7 13 6 2 5 5 10 12 5 2 1 4 9 8 6 5 6 7 7 8 9 8 6 6 8 9 10 10 10 8 7 7 6 5 6 5 4 4 3 4 4 4 5 5 6 7 6 6 6 8 12 14 17 18 11 6 6 6 8 11 10
5 6 6 6 7 8 8 9 10 9 7 5 4 5 7 9 10 8 5 3 3 2 2 4 4 8 14 8 2 7 12 14 9 3 1 -1 3 9 9 8 6 6 9 7 6 8 8 8 7 7 9 10 10 10 8 7 7 6 6 5 5 5 4 4 4 5 4 5 6 6 6 5 6 8 11 13 15 17 18 12 8 7 6 7 10 10
5 7 7 8 9 9 10 10 10 8 7 5 4 4 5 6 7 7 8 7 6 4 2 3 3 5 12 9 7 15 18 11 5 3 0 -2 2 9 13 12 7 8 11 7 5 7 8 10 9 8 8 8 9 9 8 8 7 7 6 5 6 5 5 5 4 5 5 4 5 6 5 6 7 10 13 15 16 17 15 12 10 9 7 6 8 9
6 8 9 11 10 10 11 9 8 7 7 6 5 4 5 4 3 5 6 5 6 5 3 4 2 1 10 13 16 25 21 6 1 2 2 -0 1 9 19 16 7 9 11 7 5 6 8 12 12 9 8 6 7 7 7 8 8 7 7 6 6 5 5 5 5 5 5 4 5 6 5 6 9 12 16 16 15 14 11 11 14 14 9 5 7 10
8 7 10 12 11 11 9 8 8 6 6 7 5 5 5 5 6 6 4 4 5 3 3 5 3 2 9 11 14 23 17 1 -2 5 5 -1 -2 11 20 14 7 10 12 9 5 3 7 12 13 11 8 6 6 6 6 8 9 8 7 7 6 5 5 5 5 6 6 6 6 6 6 7 11 15 17 14 10 9 10 12 18 18 10 5 7 10
9 6 8 10 8 7 6 6 6 5 5 6 5 6 6 6 8 6 4 7 7 4 3 4 3 5 10 11 10 10 3 -4 2 8 2 -7 -1 14 17 10 11 14 14 10 3 2 6 10 13 12 8 7 6 6 6 8 9 9 8 8 7 6 6 4 6 7 6 6 6 5 7 9 14 16 14 9 6 5 7 10 18 20 11 6 8 10
7 6 5 4 4 3 4 6 6 5 5 5 6 8 7 8 9 7 7 8 8 8 7 7 7 5 8 12 8 -0 -2 2 6 1 -7 -6 8 17 12 10 16 18 13 7 2 3 7 9 11 10 7 7 7 6 6 8 9 9 8 8 7 6 6 5 6 7 6 7 7 5 8 12 14 14 9 5 4 4 4 7 15 20 12 7 10 11
7 7 5 3 3 3 5 6 6 6 6 7 8 7 6 7 6 6 8 7 9 11 8 11 10 4 11 16 7 1 6 8 2 -5 -3 8 17 16 12 14 18 15 11 6 2 3 7 9 10 9 7 6 7 7 7 9 8 7 7 7 7 6 6 6 6 6 7 7 6 6 11 14 13 11 6 3 4 4 4 6 13 19 13 7 10 11
5 5 4 3 3 4 6 7 6 7 7 7 6 5 6 7 7 9 8 6 10 8 7 14 8 5 18 17 5 8 9 3 1 1 8 17 18 15 16 17 13 11 11 8 3 2 5 7 8 8 7 5 5 6 9 10 8 7 7 6 7 7 6 7 5 5 8 7 5 8 12 13 10 7 4 3 5 4 4 6 12 18 13 6 10 11
3 4 4 3 2 3 3 4 6 7 6 5 6 7 7 7 9 12 10 11 10 4 9 14 2 7 21 13 6 11 6 3 9 9 12 18 17 16 18 15 9 9 10 7 5 5 4 6 7 8 8 4 2 4 8 10 9 8 9 7 8 7 6 6 3 4 8 6 6 9 11 11 8 5 4 4 5 5 4 5 12 18 13 6 9 11
6 5 5 4 3 4 6 7 7 5 3 5 8 10 9 10 12 12 13 15 11 9 17 11 -2 11 23 12 10 11 4 9 14 9 13 18 16 17 16 11 8 8 8 7 7 5 4 6 7 7 7 3 1 3 5 7 8 8 9 9 9 8 7 6 2 5 8 6 6 10 9 10 7 4 5 6 5 5 4 4 10 18 14 5 7 10
11 11 12 11 7 5 3 3 3 2 1 5 9 13 17 17 15 12 12 11 11 17 19 7 3 18 21 12 11 9 4 12 14 10 13 15 14 16 12 9 9 7 8 8 7 6 6 7 7 6 6 4 3 4 4 4 6 7 8 9 9 9 8 5 2 5 8 6 7 9 8 8 7 4 7 7 5 6 4 4 10 17 13 5 6 9
18 18 18 19 19 18 15 11 8 7 7 8 12 17 17 13 10 9 8 7 11 13 8 6 11 13 12 12 10 6 9 13 13 12 14 15 16 14 10 10 10 7 8 9 8 9 7 6 7 6 6 5 5 7 5 4 5 6 8 9 8 9 8 5 3 6 7 6 7 8 7 8 7 5 7 7 5 6 5 4 10 17 12 5 5 8
23 20 19 20 24 31 34 30 25 23 20 17 18 18 13 11 13 13 11 10 10 7 6 13 12 3 8 16 10 10 15 13 13 14 14 14 11 9 10 12 9 7 7 8 8 9 8 7 8 7 7 7 7 7 6 4 6 6 8 10 9 10 9 5 4 6 6 7 8 8 7 7 7 6 7 7 6 6 5 4 10 15 11 5 5 6
26 25 21 19 18 20 20 18 18 20 20 20 22 21 17 18 20 16 13 12 10 10 12 15 9 4 14 17 10 12 13 9 11 12 9 8 4 3 8 9 7 6 6 7 8 7 8 9 8 7 7 7 5 5 5 5 6 6 9 13 13 12 10 5 5 7 6 7 8 8 7 6 6 6 6 7 6 6 6 5 8 14 10 5 5 5
23 23 20 19 21 20 14 13 15 14 15 20 20 15 13 15 15 11 9 9 9 11 12 11 9 8 11 9 6 10 9 8 11 7 4 5 3 3 7 8 7 6 5 7 8 8 8 8 9 8 7 6 6 6 6 6 5 4 6 13 17 15 11 7 7 7 6 7 9 8 7 5 5 6 5 6 6 7 8 5 7 13 10 5 5 5
18 21 20 20 25 24 14 12 14 10 13 17 9 6 13 15 11 8 7 8 9 10 9 6 4 4 5 6 7 8 8 6 5 2 2 4 4 8 11 9 6 4 5 8 6 7 9 7 7 7 4 5 4 3 5 6 8 10 9 13 20 19 12 8 7 6 5 8 9 7 6 5 4 5 5 5 6 7 8 6 5 11 11 6 5 5
15 19 19 18 26 29 17 9 12 10 13 19 15 15 18 12 4 4 5 7 11 12 8 4 4 9 11 10 9 10 10 8 7 5 4 6 9 13 11 5 4 10 22 28 23 18 15 11 9 7 6 7 7 9 14 15 19 23 16 16 24 22 13 9 6 4 5 7 8 8 6 5 4 5 4 4 5 6 8 7 5 9 11 6 5 6
13 17 17 16 24 29 21 15 18 16 14 21 22 16 9 5 6 11 11 10 10 9 7 6 9 11 9 6 6 8 10 13 17 18 17 20 23 22 17 12 10 10 13 19 22 24 26 26 22 18 15 15 14 15 17 17 21 24 19 21 28 23 14 9 5 3 5 7 8 7 6 5 4 4 5 3 4 5 7 8 6 7 11 8 5 7
11 13 16 16 17 23 24 21 23 25 23 22 16 7 6 10 11 13 15 15 11 9 10 13 12 9 8 10 11 10 8 10 15 18 17 17 16 16 17 16 14 8 1 2 6 9 14 17 16 13 10 9 9 9 10 9 14 21 25 29 30 20 10 5 3 4 4 5 8 7 6 7 4 3 5 3 2 4 5 8 8 6 10 11 6 6
10 11 13 12 11 17 19 18 22 25 24 22 16 10 13 14 8 7 13 16 15 15 15 15 12 10 11 12 11 10 10 9 9 9 7 6 5 5 7 8 8 7 5 7 9 8 9 10 9 8 8 9 10 10 10 12 17 26 31 29 21 12 6 4 3 3 4 5 6 6 6 7 5 4 6 4 2 3 4 6 8 7 9 12 8 5
10 10 10 9 11 13 13 16 20 18 16 20 19 17 17 14 9 9 13 12 10 11 11 9 10 12 11 9 8 10 11 9 9 9 9 10 11 9 9 10 10 9 9 9 10 11 13 14 14 13 13 13 13 11 12 17 25 28 26 19 14 8 4 4 4 1 3 6 6 5 6 7 5 5 6 5 4 3 3 5 7 7 9 11 9 6
9 8 8 8 10 10 9 13 13 10 14 18 15 17 20 17 15 18 22 23 15 8 9 8 7 9 8 9 11 10 10 12 12 13 13 13 15 16 15 13 11 11 12 11 11 11 11 12 13 12 10 9 10 10 7 10 20 25 18 10 10 10 5 4 5 1 1 7 7 4 5 6 5 5 7 7 5 3 3 4 5 8 9 10 9 7
6 6 5 5 7 5 6 10 8 8 13 11 6 12 15 15 16 12 15 26 22 12 15 16 14 14 13 12 12 9 9 12 10 9 9 8 10 12 13 15 14 13 12 11 11 13 12 13 14 12 11 9 9 12 9 4 8 16 16 11 6 7 6 4 4 2 0 6 9 4 4 5 4 4 6 8 7 4 3 3 5 8 9 8 8 8
6 4 3 1 3 1 1 5 6 6 9 6 2 6 7 10 13 2 1 17 19 10 15 19 18 20 19 18 20 19 18 20 17 17 17 14 13 11 9 11 13 13 15 14 11 11 11 13 13 12 13 12 9 11 13 9 5 6 11 13 6 4 5 3 3 3 0 5 10 5 2 5 4 3 6 8 7 6 4 3 5 9 9 8 8 8
8 6 4 1 2 1 -2 -2 0 1 4 5 4 7 9 11 9 3 3 10 8 7 12 11 8 11 12 13 16 15 14 15 17 21 21 20 23 22 19 17 13 10 12 12 11 11 10 10 11 9 8 9 9 10 11 11 9 5 6 10 8 5 3 1 3 4 1 4 9 6 3 4 4 3 4 7 8 7 5 4 5 8 9 8 7 7
10 6 5 3 5 5 1 -1 2 3 5 6 5 5 8 6 4 7 5 -1 1 9 10 2 1 6 6 5 8 8 6 6 8 11 12 12 15 18 20 22 21 18 15 13 14 13 9 9 13 13 12 12 10 10 10 10 9 7 5 6 8 8 5 2 4 5 5 4 6 7 6 5 6 4 3 6 8 6 6 5 5 7 8 8 8 7
12 9 7 6 7 7 5 4 7 8 8 8 6 6 6 3 4 7 1 -4 3 8 1 -3 2 4 2 2 3 4 3 3 5 7 7 7 7 8 9 11 13 15 16 17 18 18 14 9 7 10 15 18 15 11 10 8 6 7 7 5 6 8 6 6 7 8 7 6 5 9 10 9 9 6 4 6 7 6 7 5 5 7 8 8 10 8
11 9 8 8 8 7 5 5 8 10 9 8 7 8 8 6 6 5 2 2 8 5 -0 2 5 3 2 4 3 4 4 3 4 6 7 7 7 7 6 4 4 5 6 9 13 16 18 16 10 7 9 16 20 17 13 12 9 7 6 4 3 5 2 2 6 9 10 10 8 10 11 10 10 7 4 6 7 6 7 6 5 8 8 7 10 9
10 7 8 10 9 5 5 8 10 10 8 6 7 9 8 8 9 8 9 8 7 5 5 6 5 4 6 5 3 4 4 3 3 4 4 6 6 6 6 5 3 3 3 4 6 7 10 14 15 13 8 8 13 16 16 18 17 13 11 5 2 4 2 -1 2 7 13 13 9 9 10 9 9 8 5 6 6 6 8 7 5 8 9 6 8 9
6 5 6 8 8 4 6 11 10 7 5 5 8 9 7 6 7 8 11 7 2 4 6 5 4 5 6 5 4 4 3 3 4 4 3 4 4 3 3 2 2 2 2 3 5 4 6 8 9 11 11 8 8 11 13 16 19 21 22 17 9 9 10 8 5 7 12 13 8 6 8 9 9 8 6 6 6 6 8 7 6 8 8 6 6 9
1 1 4 7 7 3 4 9 7 5 4 4 6 9 8 8 7 6 7 5 0 2 5 4 4 4 4 6 6 4 4 4 4 4 3 4 3 3 3 2 1 2 2 1 2 2 3 6 5 6 9 9 9 10 10 10 13 18 24 26 22 17 16 15 12 10 12 12 7 5 8 10 10 8 7 7 6 7 8 8 8 9 7 6 8 11
-3 0 2 2 2 -1 1 8 7 5 5 4 7 11 9 6 5 3 3 3 2 5 7 7 8 7 7 8 6 5 6 6 4 5 4 3 3 3 3 3 1 1 1 -0 0 1 1 3 4 4 6 9 10 10 9 10 11 12 14 20 24 23 20 17 16 17 16 10 6 6 8 10 10 10 10 8 5 6 9 9 8 8 7 7 9 10
-4 0 1 -1 1 -2 -1 5 4 2 3 3 6 9 8 5 5 3 1 2 4 7 9 9 9 9 8 8 7 7 8 7 6 7 5 3 4 4 3 3 2 2 1 -0 -0 1 1 2 4 4 4 7 11 11 10 9 11 12 11 12 17 23 26 23 21 23 21 10 4 6 9 10 11 12 11 9 6 5 8 10 8 8 8 8 7 7
-4 2 2 -1 1 -1 -1 4 3 -0 2 5 6 8 8 5 3 1 2 6 7 9 10 8 7 6 4 5 5 6 7 7 7 7 6 4 5 4 3 3 3 2 2 1 1 2 2 2 3 4 3 4 8 12 11 9 9 11 12 11 12 16 23 25 23 22 20 13 6 8 11 12 13 13 10 9 9 7 8 10 7 6 9 9 4 3
-1 5 3 -0 1 0 1 4 3 0 3 5 5 5 4 4 4 4 7 8 7 6 6 4 4 4 5 6 7 7 7 7 6 6 6 5 5 5 5 4 4 3 2 2 2 3 4 4 4 3 3 4 7 11 12 11 9 10 11 12 12 12 16 22 23 20 17 15 11 11 13 14 13 13 9 8 10 9 8 9 5 5 13 11 1 1
2 5 3 1 2 2 2 5 4 2 4 3 2 4 4 4 4 5 5 5 5 5 5 4 5 6 6 6 7 7 7 7 6 6 6 6 5 6 5 4 4 4 3 4 5 4 5 6 5 4 5 6 9 13 14 12 10 11 12 13 14 14 14 16 20 19 16 14 13 13 15 14 12 11 10 9 11 10 7 5 5 8 15 9 -3 -1
3 4 4 3 2 3 5 6 4 3 4 4 3 3 4 4 5 6 6 6 6 5 5 6 7 7 8 8 8 8 8 8 8 7 7 7 6 5 5 6 7 6 4 5 6 6 6 6 6 6 7 9 13 17 15 12 11 11 12 12 14 16 15 13 17 20 16 14 15 13 12 12 10 10 11 10 9 7 5 5 7 9 11 7 0 4
3 4 3 3 3 4 5 5 3 3 4 4 3 5 7 7 6 5 5 6 7 9 10 10 9 9 10 8 7 7 7 8 9 10 12 15 15 15 16 18 19 17 12 7 6 7 8 9 10 11 13 15 18 17 13 12 13 12 11 12 14 15 14 13 16 19 16 13 13 12 10 12 11 9 9 8 5 6 6 6 7 7 6 7 8 9
Height
5841 5840 5839 5837 5836 5834 5832 5830 5829 5827 5825 5823 5821 5818 5816 5814 5812 5810 5807 5804 5802 5799 5797 5794 5790 5787 5785 5782 5779 5776 5773 5771 5768 5765 5762 5758 5755 5752 5749 5745 5742 5738 5734 5731 5727 5723 5719 5715 5712 5708 5704 5700 5696 5692 5687 5683 5679 5675 5671 5667 5663 5658 5653 5649 5644 5640 5635 5630 5626 5621 5616 5612 5607 5602 5596 5591 5586 5580 5574 5568 5561 5555 5548 5542 5535 5529
5840 5839 5838 5836 5835 5833 5831 5829 5827 5825 5823 5821 5819 5817 5814 5812 5810 5808 5805 5802 5800 5797 5794 5792 5789 5785 5783 5780 5777 5773 5771 5768 5765 5762 5759 5755 5752 5749 5746 5742 5738 5735 5731 5727 5724 5720 5716 5712 5708 5705 5701 5697 5692 5688 5684 5679 5675 5671 5667 5663 5659 5654 5649 5645 5640 5636 5631 5626 5621 5616 5611 5606 5601 5596 5590 5585 5580 5574 5568 5561 5555 5548 5542 5536 5530 5523
5840 5839 5837 5835 5833 5831 5830 5828 5826 5824 5822 5819 5817 5815 5813 5810 5808 5805 5803 5800 5798 5795 5792 5790 5788 5784 5780 5778 5775 5771 5768 5765 5762 5759 5756 5752 5749 5745 5742 5739 5735 5731 5727 5724 5720 5717 5713 5709 5705 5701 5697 5693 5689 5684 5680 5676 5671 5667 5663 5659 5655 5650 5646 5641 5637 5632 5628 5623 5618 5612 5607 5602 5596 5591 5585 5579 5573 5567 5561 5555 5549 5543 5537 5531 5524 5518
5839 5838 5836 5834 5832 5830 5828 5826 5824 5822 5820 5818 5815 5813 5810 5808 5805 5803 5800 5798 5795 5793 5790 5788 5786 5782 5777 5775 5772 5769 5766 5763 5760 5756 5753 5749 5745 5742 5738 5735 5732 5728 5724 5720 5716 5713 5709 5705 5701 5697 5693 5689 5684 5680 5676 5672 5668 5664 5659 5655 5651 5646 5642 5637 5633 5629 5624 5619 5614 5608 5603 5597 5592 5586 5580 5574 5568 5562 5556 5550 5544 5538 5532 5526 5519 5513
5838 5836 5834 5832 5830 5828 5826 5824 5822 5820 5818 5815 5813 5810 5808 5805 5803 5800 5798 5795 5793 5790 5787 5784 5783 5781 5775 5771 5770 5766 5763 5760 5756 5753 5749 5746 5742 5738 5735 5731 5728 5724 5721 5716 5712 5708 5705 5701 5697 5693 5689 5685 5680 5676 5672 5668 5664 5659 5655 5651 5647 5642 5638 5634 5629 5625 5620 5615 5609 5604 5599 5593 5587 5581 5576 5570 5563 5557 5551 5545 5539 5533 5527 5520 5514 5507
5837 5835 5833 5831 5829 5826 5824 5822 5820 5818 5815 5813 5811 5808 5805 5803 5800 5798 5795 5792 5790 5787 5784 5780 5779 5778 5773 5768 5766 5764 5760 5756 5753 5750 5746 5742 5739 5735 5732 5728 5724 5720 5717 5713 5709 5704 5700 5696 5692 5689 5685 5680 5676 5672 5668 5664 5660 5655 5651 5647 5643 5639 5634 5630 5625 5620 5615 5610 5605 5600 5595 5589 5583 5577 5571 5565 5559 5553 5546 5540 5534 5527 5521 5514 5508 5501
5835 5833 5831 5829 5827 5825 5822 5820 5818 5815 5813 5810 5808 5805 5803 5800 5797 5795 5792 5789 5786 5783 5780 5777 5774 5774 5772 5765 5762 5760 5756 5753 5749 5746 5743 5739 5735 5732 5728 5724 5720 5716 5712 5708 5704 5700 5696 5692 5688 5684 5680 5676 5672 5668 5664 5660 5655 5651 5647 5643 5639 5635 5630 5626 5621 5616 5611 5606 5601 5596 5590 5584 5578 5572 5567 5561 5555 5548 5541 5535 5528 5521 5515 5508 5502 5495
5833 5831 5829 5827 5825 5822 5820 5818 5815 5813 5810 5808 5805 5803 5800 5797 5794 5792 5789 5785 5783 5780 5777 5774 5770 5769 5768 5763 5759 5757 5753 5749 5746 5742 5739 5735 5732 5728 5724 5720 5716 5712 5708 5704 5700 5696 5692 5688 5684 5680 5676 5672 5668 5664 5659 5655 5651 5647 5643 5639 5635 5630 5626 5621 5617 5612 5607 5602 5597 5591 5586 5580 5574 5568 5562 5556 5550 5543 5537 5530 5523 5516 5510 5503 5497 5490
5831 5829 5827 5825 5822 5820 5817 5815 5812 5810 5807 5805 5802 5800 5797 5794 5791 5788 5785 5782 5780 5777 5773 5771 5767 5765 5763 5758 5755 5754 5750 5746 5743 5739 5735 5732 5728 5724 5720 5716 5711 5707 5703 5699 5695 5691 5687 5684 5680 5675 5671 5667 5663 5659 5655 5651 5647 5642 5638 5634 5630 5626 5622 5617 5612 5607 5602 5597 5593 5587 5582 5576 5570 5564 5558 5552 5545 5539 5533 5526 5519 5512 5505 5499 5492 5485
5829 5827 5824 5822 5819 5817 5814 5812 5809 5807 5804 5801 5799 5796 5793 5791 5788 5785 5782 5779 5776 5773 5770 5768 5764 5761 5759 5755 5750 5748 5746 5742 5738 5735 5731 5727 5723 5719 5715 5711 5707 5703 5699 5695 5691 5687 5683 5679 5675 5671 5666 5662 5659 5655 5651 5647 5642 5638 5634 5630 5626 5622 5617 5612 5608 5603 5598 5593 5589 5583 5578 5572 5567 5561 5554 5548 5541 5535 5528 5522 5515 5508 5501 5494 5487 5480
5827 5824 5822 5819 5816 5814 5811 5809 5806 5803 5801 5798 5795 5793 5790 5787 5784 5781 5779 5775 5772 5770 5767 5765 5761 5756 5754 5751 5746 5743 5741 5738 5734 5730 5726 5723 5719 5714 5710 5706 5702 5698 5695 5691 5687 5683 5678 5674 5670 5666 5662 5658 5654 5650 5647 5642 5638 5634 5630 5626 5622 5617 5613 5608 5603 5599 5594 5590 5585 5579 5574 5568 5562 5556 5550 5543 5537 5531 5524 5517 5510 5503 5496 5489 5483 5476
5824 5821 5819 5816 5813 5811 5808 5805 5803 5800 5797 5794 5791 5788 5786 5783 5780 5777 5775 5772 5769 5767 5764 5761 5758 5753 5750 5746 5742 5739 5736 5733 5730 5726 5722 5718 5714 5710 5705 5701 5697 5693 5690 5686 5682 5678 5674 5669 5665 5661 5657 5654 5650 5646 5643 5638 5634 5630 5626 5622 5617 5613 5608 5604 5599 5595 5590 5586 5581 5575 5569 5564 5558 5552 5545 5539 5532 5526 5519 5512 5506 5499 5492 5485 5478 5471
5821 5818 5815 5813 5810 5807 5804 5802 5799 5796 5793 5790 5787 5784 5781 5778 5775 5773 5771 5768 5765 5763 5760 5757 5754 5751 5747 5741 5737 5735 5731 5728 5724 5721 5718 5715 5711 5706 5702 5697 5692 5689 5685 5682 5678 5674 5669 5665 5661 5657 5653 5649 5646 5642 5638 5634 5630 5625 5621 5617 5613 5608 5604 5599 5595 5591 5586 5581 5576 5571 5565 5559 5553 5547 5541 5535 5528 5521 5515 5508 5501 5495 5488 5481 5475 5468
5819 5816 5813 5810 5807 5804 5801 5798 5795 5793 5790 5787 5783 5780 5777 5773 5770 5768 5766 5764 5762 5759 5756 5754 5749 5747 5744 5737 5732 5730 5727 5723 5720 5715 5712 5710 5707 5703 5698 5693 5689 5685 5681 5677 5673 5669 5665 5661 5656 5653 5649 5645 5641 5638 5634 5630 5625 5621 5616 5612 5608 5604 5600 5595 5591 5586 5582 5577 5572 5567 5561 5555 5549 5543 5537 5531 5524 5517 5511 5504 5498 5491 5484 5478 5471 5464
5816 5813 5810 5807 5804 5801 5798 5794 5792 5789 5786 5783 5780 5777 5773 5770 5766 5763 5761 5758 5757 5755 5753 5751 5746 5743 5740 5732 5726 5725 5721 5718 5715 5710 5706 5704 5702 5698 5694 5689 5685 5681 5677 5672 5669 5665 5661 5657 5653 5648 5644 5640 5636 5633 5629 5625 5621 5616 5611 5608 5603 5599 5595 5591 5586 5582 5577 5573 5568 5562 5557 5551 5545 5539 5533 5527 5520 5513 5507 5500 5494 5487 5481 5474 5467 5460
5813 5810 5806 5804 5801 5798 5795 5791 5788 5785 5783 5780 5777 5773 5770 5767 5762 5759 5756 5753 5751 5749 5749 5748 5744 5741 5737 5728 5721 5718 5716 5713 5709 5705 5700 5697 5695 5693 5690 5685 5680 5676 5672 5668 5664 5660 5656 5652 5648 5644 5640 5635 5631 5628 5624 5620 5616 5611 5607 5603 5599 5595 5591 5587 5582 5577 5573 5568 5563 5558 5552 5547 5541 5535 5529 5523 5516 5509 5503 5496 5489 5483 5476 5470 5463 5457
5811 5807 5804 5801 5798 5795 5792 5789 5786 5782 5779 5776 5773 5770 5766 5762 5759 5754 5751 5749 5745 5742 5743 5743 5740 5739 5737 5728 5719 5714 5710 5707 5703 5699 5695 5691 5689 5687 5684 5680 5675 5671 5668 5664 5659 5655 5651 5648 5644 5639 5635 5631 5627 5623 5619 5615 5611 5606 5602 5598 5594 5590 5586 5582 5578 5573 5568 5564 5559 5554 5548 5542 5537 5531 5525 5518 5512 5505 5499 5492 5485 5479 5472 5466 5460 5453
5807 5805 5802 5798 5795 5792 5789 5786 5783 5779 5776 5772 5769 5765 5761 5757 5754 5749 5745 5743 5740 5735 5736 5738 5736 5734 5734 5729 5721 5713 5706 5702 5698 5693 5689 5685 5683 5681 5678 5675 5671 5667 5664 5659 5654 5649 5646 5642 5639 5635 5631 5626 5622 5618 5614 5610 5606 5601 5597 5594 5590 5586 5582 5577 5573 5568 5564 5559 5555 5549 5544 5538 5532 5527 5520 5514 5507 5501 5495 5488 5481 5475 5468 5462 5456 5449
5803 5802 5800 5796 5791 5789 5786 5782 5779 5776 5772 5768 5765 5761 5756 5752 5748 5745 5741 5737 5733 5729 5727 5731 5732 5731 5730 5725 5717 5709 5704 5699 5695 5690 5685 5680 5677 5675 5673 5670 5667 5663 5659 5654 5649 5645 5641 5637 5633 5630 5626 5622 5617 5613 5609 5605 5601 5597 5592 5589 5586 5582 5577 5573 5568 5564 5559 5555 5550 5544 5539 5534 5528 5522 5516 5510 5503 5497 5491 5484 5477 5471 5464 5458 5452 5445
5798 5796 5796 5793 5788 5784 5782 5778 5775 5772 5768 5764 5761 5756 5752 5748 5743 5740 5737 5732 5728 5722 5719 5720 5724 5727 5727 5720 5710 5704 5700 5695 5690 5686 5683 5678 5674 5670 5667 5665 5662 5658 5653 5648 5644 5641 5636 5632 5628 5624 5621 5617 5613 5609 5604 5600 5596 5592 5588 5584 5581 5577 5572 5568 5563 5559 5555 5551 5545 5540 5534 5529 5524 5518 5512 5506 5500 5493 5487 5480 5473 5467 5460 5454 5448 5441
5794 5791 5790 5789 5785 5780 5777 5773 5770 5767 5763 5760 5757 5752 5747 5742 5737 5733 5731 5729 5723 5717 5713 5711 5712 5720 5723 5713 5703 5699 5694 5689 5683 5680 5679 5675 5670 5667 5663 5659 5655 5651 5647 5643 5639 5636 5632 5628 5624 5620 5616 5612 5608 5604 5599 5595 5591 5587 5583 5580 5576 5572 5567 5563 5559 5555 5551 5546 5541 5535 5530 5525 5519 5514 5508 5502 5496 5490 5483 5476 5470 5463 5457 5451 5445 5438
5789 5786 5784 5783 5780 5776 5773 5769 5765 5762 5759 5755 5752 5748 5743 5737 5731 5725 5723 5723 5719 5714 5710 5704 5701 5712 5717 5705 5697 5693 5688 5683 5677 5673 5673 5671 5666 5663 5659 5654 5649 5645 5641 5637 5634 5630 5626 5623 5619 5615 5611 5607 5603 5599 5594 5590 5586 5582 5578 5575 5571 5567 5562 5558 5554 5550 5546 5541 5536 5531 5526 5521 5515 5510 5504 5498 5492 5486 5479 5473 5466 5460 5454 5448 5441 5434
5783 5780 5778 5777 5775 5771 5767 5763 5760 5756 5753 5750 5746 5742 5738 5732 5726 5719 5715 5714 5713 5710 5706 5698 5694 5704 5709 5699 5690 5686 5681 5677 5672 5666 5666 5665 5661 5657 5653 5649 5645 5640 5636 5632 5628 5625 5621 5618 5614 5610 5606 5602 5598 5593 5589 5585 5581 5577 5573 5569 5566 5562 5557 5553 5549 5545 5541 5536 5531 5527 5521 5516 5511 5505 5500 5494 5488 5482 5476 5469 5463 5456 5450 5444 5438 5431
5778 5774 5770 5770 5770 5767 5763 5759 5754 5750 5748 5745 5741 5736 5732 5726 5720 5715 5710 5707 5706 5704 5700 5692 5687 5694 5700 5693 5685 5680 5675 5673 5668 5661 5659 5657 5655 5652 5648 5644 5640 5636 5632 5628 5624 5620 5616 5612 5609 5605 5601 5596 5592 5588 5584 5580 5576 5572 5568 5564 5560 5556 5552 5548 5545 5540 5536 5531 5527 5522 5517 5512 5507 5502 5496 5491 5484 5478 5472 5465 5459 5453 5447 5441 5434 5427
5774 5768 5762 5760 5759 5758 5756 5752 5747 5744 5742 5739 5735 5729 5724 5720 5714 5709 5705 5701 5699 5698 5695 5687 5680 5683 5689 5686 5680 5676 5672 5669 5665 5659 5654 5651 5649 5646 5643 5640 5636 5631 5628 5624 5620 5616 5611 5607 5603 5599 5595 5591 5586 5582 5578 5574 5570 5566 5563 5559 5555 5551 5547 5543 5539 5535 5531 5527 5522 5518 5513 5508 5503 5498 5492 5487 5481 5474 5468 5462 5456 5450 5444 5437 5431 5424
5769 5764 5759 5754 5751 5747 5745 5742 5739 5737 5736 5734 5729 5723 5718 5715 5710 5705 5701 5697 5693 5691 5690 5685 5675 5674 5681 5679 5675 5673 5669 5665 5662 5657 5651 5647 5644 5640 5637 5634 5631 5627 5623 5619 5615 5611 5607 5602 5597 5593 5589 5585 5580 5576 5572 5569 5565 5561 5557 5553 5549 5545 5541 5538 5534 5530 5526 5522 5518 5513 5508 5503 5499 5494 5489 5483 5477 5471 5464 5458 5452 5446 5440 5434 5427 5420
5766 5761 5757 5753 5749 5744 5740 5738 5734 5731 5730 5729 5725 5718 5713 5711 5707 5703 5699 5695 5689 5685 5685 5682 5673 5670 5673 5671 5669 5669 5664 5660 5657 5652 5647 5644 5639 5635 5632 5629 5625 5621 5616 5612 5608 5604 5601 5597 5592 5587 5583 5578 5574 5570 5566 5562 5559 5555 5551 5547 5543 5539 5535 5532 5529 5525 5521 5517 5513 5509 5504 5499 5494 5489 5485 5479 5473 5467 5461 5455 5449 5443 5437 5430 5424 5416
5762 5758 5754 5751 5749 5743 5737 5734 5732 5728 5726 5724 5719 5713 5709 5707 5703 5700 5697 5692 5686 5680 5677 5677 5673 5668 5666 5664 5662 5661 5658 5654 5650 5645 5641 5638 5634 5630 5626 5623 5620 5616 5611 5607 5602 5598 5594 5590 5586 5582 5577 5572 5568 5564 5560 5556 5552 5548 5545 5541 5537 5533 5530 5527 5523 5519 5515 5512 5508 5504 5499 5495 5490 5485 5480 5475 5469 5464 5458 5451 5445 5439 5433 5427 5420 5413
5758 5754 5750 5748 5747 5741 5734 5731 5729 5726 5723 5720 5715 5709 5705 5703 5699 5697 5693 5688 5683 5677 5672 5671 5670 5667 5662 5658 5657 5655 5651 5647 5642 5636 5633 5630 5627 5623 5619 5617 5614 5610 5606 5601 5596 5592 5587 5583 5579 5575 5571 5567 5562 5558 5554 5550 5546 5542 5538 5534 5530 5527 5524 5521 5517 5514 5510 5507 5503 5499 5494 5490 5486 5481 5476 5471 5466 5460 5454 5448 5442 5435 5429 5423 5417 5409
5753 5750 5746 5744 5743 5739 5732 5728 5726 5722 5719 5717 5712 5705 5701 5698 5695 5692 5689 5685 5679 5674 5669 5665 5664 5662 5658 5653 5651 5649 5645 5641 5635 5628 5625 5623 5619 5615 5612 5609 5606 5602 5598 5593 5589 5585 5580 5576 5572 5568 5565 5560 5556 5552 5548 5544 5539 5535 5532 5528 5524 5521 5518 5515 5512 5508 5505 5501 5498 5494 5489 5485 5481 5476 5471 5467 5461 5456 5450 5444 5438 5432 5425 5419 5413 5406
5750 5746 5742 5739 5738 5735 5730 5726 5723 5718 5714 5712 5708 5701 5697 5694 5691 5688 5686 5682 5676 5669 5665 5661 5658 5656 5654 5649 5645 5643 5640 5636 5629 5621 5617 5616 5613 5608 5604 5601 5598 5595 5590 5586 5582 5578 5574 5569 5565 5561 5558 5553 5549 5545 5541 5538 5534 5529 5525 5521 5518 5515 5513 5509 5506 5502 5499 5496 5493 5489 5484 5480 5476 5471 5467 5462 5457 5452 5446 5440 5434 5428 5422 5416 5409 5402
5747 5743 5739 5735 5733 5730 5726 5722 5719 5715 5711 5707 5702 5697 5693 5689 5686 5685 5683 5678 5671 5664 5661 5658 5653 5650 5647 5643 5640 5638 5636 5632 5624 5615 5610 5609 5607 5602 5597 5593 5591 5588 5584 5580 5576 5572 5567 5563 5559 5555 5551 5547 5543 5539 5535 5532 5528 5523 5519 5515 5512 5510 5507 5503 5500 5497 5494 5491 5488 5484 5479 5475 5471 5467 5462 5458 5453 5447 5442 5436 5430 5424 5418 5412 5406 5399
5745 5740 5736 5732 5729 5727 5723 5718 5715 5711 5707 5702 5695 5691 5688 5685 5682 5682 5681 5675 5667 5661 5657 5653 5649 5645 5642 5637 5634 5632 5631 5626 5619 5610 5603 5601 5600 5597 5592 5587 5583 5580 5577 5573 5569 5564 5561 5557 5553 5548 5544 5541 5537 5533 5530 5526 5523 5518 5514 5510 5507 5504 5501 5497 5494 5491 5489 5486 5482 5478 5474 5470 5466 5462 5458 5453 5448 5443 5438 5432 5426 5420 5414 5408 5402 5396
5742 5738 5733 5729 5725 5723 5719 5715 5711 5707 5702 5695 5690 5687 5684 5681 5678 5677 5676 5671 5663 5658 5654 5650 5645 5641 5637 5632 5627 5624 5623 5620 5613 5605 5598 5593 5590 5589 5586 5581 5577 5573 5570 5566 5562 5557 5553 5550 5547 5543 5538 5534 5531 5528 5524 5521 5517 5514 5509 5505 5502 5499 5495 5492 5489 5486 5484 5481 5477 5473 5469 5465 5461 5457 5453 5448 5443 5438 5433 5428 5422 5416 5411 5405 5398 5392
5739 5735 5731 5726 5722 5718 5715 5710 5706 5704 5699 5692 5687 5684 5681 5677 5674 5672 5672 5668 5660 5654 5651 5646 5642 5637 5632 5627 5623 5619 5617 5615 5610 5601 5595 5589 5584 5581 5578 5575 5572 5568 5563 5560 5556 5551 5547 5543 5540 5537 5533 5529 5525 5522 5520 5516 5513 5509 5505 5500 5497 5493 5490 5487 5484 5481 5479 5476 5472 5468 5464 5460 5456 5453 5448 5443 5439 5434 5429 5424 5418 5413 5407 5401 5395 5389
5736 5731 5727 5723 5719 5714 5711 5706 5702 5699 5697 5691 5686 5682 5678 5673 5669 5665 5666 5665 5657 5649 5645 5641 5637 5633 5628 5623 5619 5615 5612 5611 5606 5598 5591 5586 5581 5575 5572 5568 5565 5561 5557 5553 5550 5546 5542 5537 5533 5529 5526 5523 5519 5516 5514 5511 5508 5504 5500 5496 5492 5488 5485 5482 5479 5476 5474 5470 5466 5462 5459 5455 5451 5448 5443 5439 5434 5429 5424 5419 5414 5409 5403 5397 5391 5386
5732 5728 5724 5719 5715 5710 5706 5703 5699 5695 5692 5686 5681 5678 5673 5668 5663 5658 5657 5656 5651 5644 5640 5636 5632 5628 5624 5619 5614 5610 5606 5604 5602 5595 5587 5582 5577 5571 5567 5562 5558 5554 5551 5548 5544 5540 5536 5532 5528 5523 5520 5517 5513 5511 5508 5506 5503 5499 5495 5491 5487 5484 5480 5477 5473 5470 5468 5465 5461 5457 5453 5450 5446 5442 5438 5434 5429 5425 5420 5415 5410 5405 5400 5394 5388 5382
5729 5725 5720 5716 5711 5706 5701 5697 5693 5689 5686 5681 5676 5672 5667 5663 5658 5653 5650 5649 5645 5639 5634 5631 5627 5623 5619 5614 5609 5603 5599 5597 5596 5591 5585 5579 5573 5568 5564 5559 5554 5549 5544 5540 5538 5535 5531 5527 5523 5519 5514 5511 5508 5505 5502 5500 5497 5494 5490 5486 5482 5479 5475 5471 5467 5465 5462 5459 5455 5452 5448 5444 5441 5437 5433 5429 5425 5420 5415 5410 5405 5401 5396 5390 5385 5379
5726 5722 5718 5712 5707 5703 5698 5693 5688 5684 5681 5678 5673 5668 5663 5658 5653 5648 5644 5643 5641 5634 5628 5624 5621 5617 5611 5607 5602 5597 5592 5588 5587 5585 5581 5575 5570 5564 5559 5555 5550 5545 5540 5535 5530 5528 5525 5521 5517 5513 5509 5505 5502 5499 5496 5494 5491 5488 5484 5480 5477 5473 5469 5465 5461 5459 5456 5453 5450 5446 5443 5439 5435 5432 5428 5424 5420 5415 5410 5405 5401 5396 5392 5387 5381 5376
5721 5717 5714 5709 5704 5699 5695 5691 5686 5681 5677 5674 5670 5665 5660 5654 5649 5644 5638 5636 5636 5632 5625 5618 5614 5610 5605 5601 5596 5592 5586 5580 5577 5575 5572 5569 5565 5560 5554 5548 5544 5539 5535 5531 5526 5521 5518 5515 5510 5506 5502 5498 5495 5492 5489 5486 5484 5481 5478 5474 5471 5467 5463 5459 5456 5453 5449 5446 5444 5440 5437 5433 5429 5426 5422 5418 5415 5410 5405 5401 5396 5392 5387 5383 5378 5373
5716 5712 5709 5704 5700 5695 5691 5686 5682 5678 5673 5668 5664 5659 5654 5649 5645 5641 5635 5630 5628 5626 5621 5615 5608 5604 5600 5595 5590 5587 5582 5575 5569 5566 5563 5560 5556 5554 5549 5544 5539 5534 5529 5524 5519 5514 5512 5509 5504 5500 5495 5490 5486 5484 5481 5479 5477 5474 5470 5467 5464 5460 5456 5453 5450 5447 5443 5440 5437 5434 5430 5427 5423 5420 5416 5413 5409 5405 5401 5396 5392 5387 5383 5378 5374 5369
5710 5706 5703 5699 5694 5690 5686 5681 5676 5672 5668 5663 5658 5654 5649 5643 5638 5635 5632 5627 5622 5617 5614 5610 5604 5598 5594 5590 5585 5580 5576 5571 5565 5560 5556 5552 5547 5544 5540 5536 5532 5528 5523 5519 5513 5508 5504 5501 5498 5494 5490 5484 5479 5476 5473 5471 5468 5466 5463 5460 5456 5452 5450 5447 5444 5440 5437 5433 5430 5427 5424 5420 5417 5414 5411 5407 5404 5400 5396 5391 5387 5383 5379 5374 5370 5365
5703 5700 5697 5694 5689 5684 5680 5677 5671 5665 5660 5656 5652 5648 5643 5637 5631 5626 5624 5621 5616 5610 5605 5602 5597 5592 5586 5583 5580 5575 5570 5565 5560 5554 5550 5545 5540 5535 5531 5527 5523 5519 5515 5511 5507 5502 5496 5493 5490 5486 5483 5478 5472 5468 5465 5462 5459 5457 5454 5451 5448 5445 5443 5440 5437 5434 5430 5427 5424 5421 5417 5414 5411 5408 5405 5401 5398 5394 5391 5387 5382 5378 5374 5370 5366 5361
5699 5694 5691 5688 5684 5678 5674 5673 5670 5664 5658 5652 5647 5642 5637 5631 5624 5618 5614 5611 5608 5603 5597 5592 5589 5584 5577 5573 5570 5567 5562 5557 5552 5547 5542 5538 5534 5528 5523 5519 5514 5510 5506 5502 5498 5493 5489 5485 5481 5478 5476 5471 5465 5461 5457 5453 5450 5449 5446 5442 5440 5437 5435 5432 5429 5426 5423 5420 5417 5414 5411 5408 5405 5402 5399 5395 5392 5389 5386 5382 5378 5374 5370 5366 5362 5358
5696 5691 5687 5684 5680 5675 5671 5669 5665 5661 5655 5649 5643 5638 5632 5627 5621 5613 5606 5602 5599 5594 5589 5584 5580 5576 5570 5563 5559 5556 5552 5548 5543 5539 5534 5529 5525 5520 5515 5510 5506 5501 5496 5493 5489 5484 5480 5476 5472 5469 5467 5465 5459 5454 5450 5446 5442 5439 5438 5434 5431 5429 5427 5424 5421 5418 5416 5413 5410 5407 5404 5401 5399 5396 5393 5390 5387 5384 5380 5377 5373 5369 5365 5361 5357 5354
5692 5688 5683 5679 5675 5669 5667 5665 5659 5652 5648 5644 5639 5633 5626 5620 5614 5608 5601 5596 5592 5587 5581 5576 5571 5567 5561 5555 5549 5545 5541 5537 5532 5528 5524 5519 5515 5510 5505 5501 5497 5493 5488 5483 5479 5475 5471 5467 5463 5460 5458 5456 5452 5447 5443 5439 5434 5431 5429 5427 5424 5421 5419 5416 5413 5410 5408 5405 5403 5400 5397 5395 5393 5390 5387 5384 5381 5378 5375 5372 5368 5364 5361 5357 5353 5349
5687 5683 5678 5673 5668 5661 5658 5658 5654 5646 5641 5636 5630 5626 5620 5612 5607 5601 5595 5590 5585 5579 5574 5568 5562 5557 5552 5546 5539 5533 5530 5526 5520 5516 5513 5509 5505 5500 5495 5491 5487 5483 5479 5475 5470 5465 5460 5456 5453 5450 5448 5446 5444 5440 5435 5432 5427 5423 5420 5418 5416 5413 5411 5408 5405 5402 5400 5397 5395 5393 5390 5388 5386 5384 5381 5378 5376 5373 5369 5367 5364 5360 5357 5353 5349 5345
5681 5677 5671 5666 5662 5655 5650 5649 5644 5639 5637 5632 5623 5616 5611 5605 5599 5594 5587 5580 5575 5570 5564 5559 5552 5546 5540 5535 5529 5522 5518 5515 5510 5504 5499 5496 5493 5489 5484 5480 5476 5472 5469 5465 5460 5455 5450 5446 5441 5439 5438 5436 5434 5430 5427 5423 5420 5415 5412 5410 5408 5406 5403 5400 5397 5395 5392 5389 5387 5385 5383 5381 5379 5378 5375 5373 5370 5367 5364 5362 5359 5356 5353 5350 5346 5341
5673 5669 5663 5657 5653 5650 5645 5640 5633 5627 5628 5628 5619 5609 5602 5595 5588 5584 5578 5571 5565 5559 5553 5548 5543 5537 5529 5523 5517 5510 5504 5501 5497 5492 5487 5483 5479 5475 5471 5467 5463 5460 5456 5452 5449 5444 5440 5435 5430 5428 5427 5426 5423 5420 5417 5415 5412 5408 5404 5402 5400 5398 5396 5393 5390 5388 5385 5382 5380 5378 5376 5375 5373 5371 5369 5367 5364 5362 5359 5357 5354 5351 5348 5346 5342 5337
5667 5662 5655 5647 5642 5639 5637 5633 5624 5615 5613 5613 5609 5601 5593 5585 5578 5572 5567 5561 5554 5548 5541 5535 5531 5527 5521 5514 5506 5499 5491 5486 5483 5478 5474 5470 5466 5461 5457 5452 5448 5445 5442 5438 5435 5432 5428 5424 5420 5416 5415 5414 5413 5410 5407 5406 5403 5399 5396 5394 5393 5391 5388 5385 5383 5381 5378 5375 5373 5372 5370 5369 5367 5365 5363 5361 5358 5356 5354 5352 5349 5346 5344 5341 5337 5333
5661 5655 5648 5640 5633 5629 5627 5623 5617 5609 5602 5599 5595 5589 5582 5574 5567 5561 5554 5548 5541 5534 5528 5521 5515 5510 5505 5501 5496 5489 5481 5474 5468 5463 5458 5455 5452 5448 5443 5438 5433 5429 5426 5424 5421 5418 5415 5412 5409 5406 5404 5402 5401 5399 5397 5396 5394 5390 5388 5387 5385 5383 5381 5378 5376 5375 5372 5369 5367 5366 5364 5362 5361 5359 5357 5355 5352 5350 5348 5346 5344 5341 5338 5335 5331 5328